Time,TemperatureF,DewpointF,PressureIn,WindDirection,WindDirectionDegrees,WindSpeedMPH,WindSpeedGustMPH,Humidity,HourlyPrecipIn,Conditions,Clouds,dailyrainin,SoftwareType,DateUTC
2013-07-30 00:00:00,45.4,43.0,29.98,NNW,342,0.0,3.0,90,0.00,,,0.00,weatherlink.com 1.10,2013-07-30 06:00:00,
2013-07-30 00:15:00,45.1,43.0,29.99,North,352,4.0,4.0,91,0.00,,,0.00,weatherlink.com 1.10,2013-07-30 06:15:00,
2013-07-30 00:30:00,44.7,42.0,30.00,NW,322,0.0,3.0,91,0.00,,,0.00,weatherlink.com 1.10,2013-07-30 06:30:00,
2013-07-30 00:46:00,44.3,42.0,30.01,North,352,2.0,3.0,91,0.00,,,0.00,weatherlink.com 1.10,2013-07-30 06:46:00,
2013-07-30 01:01:00,44.0,42.0,30.01,NW,322,0.0,0.0,91,0.00,,,0.00,weatherlink.com 1.10,2013-07-30 07:01:00,
2013-07-30 01:16:00,43.7,42.0,30.02,NW,325,8.0,10.0,93,0.00,,,0.00,weatherlink.com 1.10,2013-07-30 07:16:00,
2013-07-30 01:31:00,44.7,42.0,30.03,NW,316,5.0,7.0,89,0.00,,,0.00,weatherlink.com 1.10,2013-07-30 07:31:00,
2013-07-30 01:46:00,47.1,43.0,30.02,NNE,20,4.0,12.0,85,0.00,,,0.00,weatherlink.com 1.10,2013-07-30 07:46:00,
2013-07-30 02:01:00,45.1,42.0,30.02,East,79,0.0,3.0,88,0.00,,,0.00,weatherlink.com 1.10,2013-07-30 08:01:00,
2013-07-30 02:16:00,45.3,42.0,30.02,NNE,19,2.0,5.0,89,0.00,,,0.00,weatherlink.com 1.10,2013-07-30 08:16:00,
2013-07-30 02:31:00,42.9,40.0,30.02,ESE,105,3.0,5.0,90,0.00,,,0.00,weatherlink.com 1.10,2013-07-30 08:31:00,
2013-07-30 02:46:00,42.8,41.0,30.03,SSW,203,2.0,4.0,92,0.00,,,0.00,weatherlink.com 1.10,2013-07-30 08:46:00,
2013-07-30 03:01:00,41.6,40.0,30.03,WNW,288,0.0,2.0,93,0.00,,,0.00,weatherlink.com 1.10,2013-07-30 09:01:00,
2013-07-30 03:16:00,41.6,40.0,30.04,WNW,284,0.0,0.0,94,0.00,,,0.00,weatherlink.com 1.10,2013-07-30 09:16:00,
2013-07-30 03:31:00,41.2,40.0,30.04,NNW,332,0.0,0.0,94,0.00,,,0.00,weatherlink.com 1.10,2013-07-30 09:31:00,
2013-07-30 03:46:00,41.2,40.0,30.03,West,267,0.0,0.0,95,0.00,,,0.00,weatherlink.com 1.10,2013-07-30 09:46:00,
2013-07-30 04:01:00,40.9,39.0,30.04,West,267,0.0,0.0,94,0.00,,,0.00,weatherlink.com 1.10,2013-07-30 10:01:00,
2013-07-30 04:16:00,40.0,39.0,30.04,NNW,328,0.0,2.0,94,0.00,,,0.00,weatherlink.com 1.10,2013-07-30 10:16:00,
2013-07-30 04:31:00,40.3,39.0,30.05,WNW,288,1.0,4.0,95,0.00,,,0.00,weatherlink.com 1.10,2013-07-30 10:31:00,
2013-07-30 04:46:00,40.0,38.0,30.06,SW,224,0.0,2.0,93,0.00,,,0.00,weatherlink.com 1.10,2013-07-30 10:46:00,
2013-07-30 05:01:00,40.0,38.0,30.07,NW,322,0.0,2.0,93,0.00,,,0.00,weatherlink.com 1.10,2013-07-30 11:01:00,
2013-07-30 05:16:00,39.5,38.0,30.07,North,9,0.0,0.0,95,0.00,,,0.00,weatherlink.com 1.10,2013-07-30 11:16:00,
2013-07-30 05:31:00,38.6,37.0,30.08,North,3,0.0,0.0,94,0.00,,,0.00,weatherlink.com 1.10,2013-07-30 11:31:00,
2013-07-30 05:46:00,38.6,37.0,30.09,NNE,18,0.0,0.0,95,0.00,,,0.00,weatherlink.com 1.10,2013-07-30 11:46:00,
2013-07-30 06:01:00,38.7,37.0,30.09,NW,325,0.0,0.0,95,0.00,,,0.00,weatherlink.com 1.10,2013-07-30 12:01:00,
2013-07-30 06:16:00,38.6,37.0,30.10,NNE,15,2.0,2.0,95,0.00,,,0.00,weatherlink.com 1.10,2013-07-30 12:16:00,
2013-07-30 06:31:00,38.3,37.0,30.11,West,264,0.0,1.0,94,0.00,,,0.00,weatherlink.com 1.10,2013-07-30 12:31:00,
2013-07-30 06:46:00,37.8,36.0,30.12,West,264,0.0,0.0,94,0.00,,,0.00,weatherlink.com 1.10,2013-07-30 12:46:00,
2013-07-30 07:01:00,39.5,39.0,30.12,NW,316,0.0,0.0,96,0.00,,,0.00,weatherlink.com 1.10,2013-07-30 13:01:00,
2013-07-30 07:16:00,41.2,39.0,30.12,NW,317,1.0,3.0,93,0.00,,,0.00,weatherlink.com 1.10,2013-07-30 13:16:00,
2013-07-30 07:32:00,42.3,40.0,30.13,North,4,2.0,5.0,90,0.00,,,0.00,weatherlink.com 1.10,2013-07-30 13:32:00,
2013-07-30 07:47:00,44.1,42.0,30.13,NNE,32,1.0,3.0,91,0.00,,,0.00,weatherlink.com 1.10,2013-07-30 13:47:00,
2013-07-30 08:02:00,46.3,42.0,30.13,ENE,58,0.0,2.0,86,0.00,,,0.00,weatherlink.com 1.10,2013-07-30 14:02:00,
2013-07-30 08:17:00,48.3,43.0,30.13,East,91,0.0,0.0,82,0.00,,,0.00,weatherlink.com 1.10,2013-07-30 14:17:00,
2013-07-30 08:32:00,49.7,43.0,30.13,East,96,0.0,0.0,79,0.00,,,0.00,weatherlink.com 1.10,2013-07-30 14:32:00,
2013-07-30 08:47:00,50.8,44.0,30.13,NE,50,1.0,2.0,76,0.00,,,0.00,weatherlink.com 1.10,2013-07-30 14:47:00,
2013-07-30 09:02:00,52.8,44.0,30.13,East,91,0.0,2.0,71,0.00,,,0.00,weatherlink.com 1.10,2013-07-30 15:02:00,
2013-07-30 09:17:00,54.5,44.0,30.12,NE,37,3.0,3.0,68,0.00,,,0.00,weatherlink.com 1.10,2013-07-30 15:17:00,
2013-07-30 09:32:00,54.4,44.0,30.11,NNW,340,0.0,4.0,69,0.00,,,0.00,weatherlink.com 1.10,2013-07-30 15:32:00,
2013-07-30 09:47:00,56.1,44.0,30.10,North,351,1.0,3.0,65,0.00,,,0.00,weatherlink.com 1.10,2013-07-30 15:47:00,
2013-07-30 10:02:00,57.5,46.0,30.09,NE,46,0.0,3.0,66,0.00,,,0.00,weatherlink.com 1.10,2013-07-30 16:02:00,
2013-07-30 10:17:00,59.1,47.0,30.08,NNW,335,3.0,3.0,65,0.00,,,0.00,weatherlink.com 1.10,2013-07-30 16:17:00,
2013-07-30 10:32:00,61.1,46.0,30.07,East,89,2.0,4.0,59,0.00,,,0.00,weatherlink.com 1.10,2013-07-30 16:32:00,
2013-07-30 10:47:00,63.4,46.0,30.07,NE,49,0.0,3.0,54,0.00,,,0.00,weatherlink.com 1.10,2013-07-30 16:47:00,
2013-07-30 11:02:00,65.4,44.0,30.06,ENE,77,4.0,7.0,47,0.00,,,0.00,weatherlink.com 1.10,2013-07-30 17:02:00,
2013-07-30 11:17:00,66.9,44.0,30.06,NE,36,7.0,11.0,43,0.00,,,0.00,weatherlink.com 1.10,2013-07-30 17:17:00,
2013-07-30 11:32:00,68.4,44.0,30.07,SSE,162,7.0,7.0,41,0.00,,,0.00,weatherlink.com 1.10,2013-07-30 17:32:00,
2013-07-30 11:47:00,70.2,35.0,30.07,West,271,9.0,24.0,28,0.00,,,0.00,weatherlink.com 1.10,2013-07-30 17:47:00,
2013-07-30 12:02:00,70.7,35.0,30.07,WNW,300,4.0,22.0,27,0.00,,,0.00,weatherlink.com 1.10,2013-07-30 18:02:00,
2013-07-30 12:17:00,71.2,35.0,30.06,West,259,13.0,17.0,27,0.00,,,0.00,weatherlink.com 1.10,2013-07-30 18:17:00,
2013-07-30 12:33:00,72.3,35.0,30.06,West,263,11.0,27.0,26,0.00,,,0.00,weatherlink.com 1.10,2013-07-30 18:33:00,
2013-07-30 12:48:00,73.0,35.0,30.05,WNW,293,9.0,27.0,25,0.00,,,0.00,weatherlink.com 1.10,2013-07-30 18:48:00,
2013-07-30 13:03:00,73.6,34.0,30.05,WNW,294,8.0,16.0,23,0.00,,,0.00,weatherlink.com 1.10,2013-07-30 19:03:00,
2013-07-30 13:18:00,72.4,35.0,30.05,WNW,302,8.0,22.0,25,0.00,,,0.00,weatherlink.com 1.10,2013-07-30 19:18:00,
2013-07-30 13:33:00,72.8,34.0,30.05,WNW,288,4.0,10.0,24,0.00,,,0.00,weatherlink.com 1.10,2013-07-30 19:33:00,
2013-07-30 13:48:00,72.7,37.0,30.04,WNW,300,7.0,15.0,27,0.00,,,0.00,weatherlink.com 1.10,2013-07-30 19:48:00,
2013-07-30 14:03:00,73.3,35.0,30.04,SW,215,12.0,18.0,25,0.00,,,0.00,weatherlink.com 1.10,2013-07-30 20:03:00,
2013-07-30 14:18:00,71.9,36.0,30.04,WNW,300,6.0,17.0,27,0.00,,,0.00,weatherlink.com 1.10,2013-07-30 20:18:00,
2013-07-30 14:33:00,73.3,36.0,30.04,SW,226,10.0,13.0,26,0.00,,,0.00,weatherlink.com 1.10,2013-07-30 20:33:00,
2013-07-30 14:48:00,73.1,33.0,30.03,WNW,300,1.0,18.0,23,0.00,,,0.00,weatherlink.com 1.10,2013-07-30 20:48:00,
2013-07-30 15:03:00,73.5,34.0,30.03,NNW,328,3.0,12.0,24,0.00,,,0.00,weatherlink.com 1.10,2013-07-30 21:03:00,
2013-07-30 15:18:00,73.6,31.0,30.03,North,9,9.0,15.0,21,0.00,,,0.00,weatherlink.com 1.10,2013-07-30 21:18:00,
2013-07-30 15:33:00,73.7,35.0,30.03,NNW,329,8.0,15.0,24,0.00,,,0.00,weatherlink.com 1.10,2013-07-30 21:33:00,
2013-07-30 15:48:00,73.3,31.0,30.03,WNW,290,1.0,17.0,21,0.00,,,0.00,weatherlink.com 1.10,2013-07-30 21:48:00,
2013-07-30 16:03:00,73.3,32.0,30.02,NW,315,6.0,12.0,22,0.00,,,0.00,weatherlink.com 1.10,2013-07-30 22:03:00,
2013-07-30 16:18:00,72.9,29.0,30.02,NE,38,2.0,7.0,20,0.00,,,0.00,weatherlink.com 1.10,2013-07-30 22:18:00,
2013-07-30 16:33:00,75.2,30.0,30.02,NW,310,5.0,14.0,19,0.00,,,0.00,weatherlink.com 1.10,2013-07-30 22:33:00,
2013-07-30 16:48:00,74.1,33.0,30.01,NW,305,7.0,13.0,22,0.00,,,0.00,weatherlink.com 1.10,2013-07-30 22:48:00,
2013-07-30 17:03:00,73.6,30.0,30.01,North,6,4.0,15.0,20,0.00,,,0.00,weatherlink.com 1.10,2013-07-30 23:03:00,
2013-07-30 17:18:00,73.6,31.0,30.01,NNW,330,7.0,10.0,21,0.00,,,0.00,weatherlink.com 1.10,2013-07-30 23:18:00,
2013-07-30 17:33:00,71.8,30.0,30.00,NNW,340,15.0,17.0,21,0.00,,,0.00,weatherlink.com 1.10,2013-07-30 23:33:00,
2013-07-30 17:48:00,71.2,30.0,30.01,NNE,18,6.0,14.0,22,0.00,,,0.00,weatherlink.com 1.10,2013-07-30 23:48:00,
2013-07-30 18:03:00,71.1,31.0,30.01,NW,319,4.0,10.0,23,0.00,,,0.00,weatherlink.com 1.10,2013-07-31 00:03:00,
2013-07-30 18:18:00,70.4,33.0,30.00,NW,307,3.0,9.0,25,0.00,,,0.00,weatherlink.com 1.10,2013-07-31 00:18:00,
2013-07-30 18:33:00,70.2,34.0,30.00,NW,311,6.0,10.0,26,0.00,,,0.00,weatherlink.com 1.10,2013-07-31 00:33:00,
2013-07-30 18:48:00,70.0,33.0,30.00,NNW,345,4.0,9.0,26,0.00,,,0.00,weatherlink.com 1.10,2013-07-31 00:48:00,
2013-07-30 19:03:00,69.6,34.0,30.01,NNW,346,5.0,10.0,27,0.00,,,0.00,weatherlink.com 1.10,2013-07-31 01:03:00,
2013-07-30 19:18:00,69.7,34.0,30.00,NNW,333,7.0,14.0,27,0.00,,,0.00,weatherlink.com 1.10,2013-07-31 01:18:00,
2013-07-30 19:33:00,69.9,34.0,30.00,NW,323,7.0,14.0,27,0.00,,,0.00,weatherlink.com 1.10,2013-07-31 01:33:00,
2013-07-30 19:48:00,68.4,35.0,30.00,NNW,327,6.0,10.0,29,0.00,,,0.00,weatherlink.com 1.10,2013-07-31 01:48:00,
2013-07-30 20:03:00,67.0,37.0,30.00,WNW,294,4.0,6.0,33,0.00,,,0.00,weatherlink.com 1.10,2013-07-31 02:03:00,
2013-07-30 20:18:00,66.0,37.0,30.00,WNW,288,3.0,7.0,34,0.00,,,0.00,weatherlink.com 1.10,2013-07-31 02:18:00,
2013-07-30 20:33:00,64.4,37.0,30.01,NW,325,2.0,5.0,37,0.00,,,0.00,weatherlink.com 1.10,2013-07-31 02:33:00,
2013-07-30 20:48:00,62.4,39.0,30.01,NW,314,2.0,3.0,42,0.00,,,0.00,weatherlink.com 1.10,2013-07-31 02:48:00,
2013-07-30 21:03:00,61.1,38.0,30.01,NW,314,3.0,6.0,43,0.00,,,0.00,weatherlink.com 1.10,2013-07-31 03:03:00,
2013-07-30 21:18:00,59.5,38.0,30.02,WNW,297,3.0,4.0,45,0.00,,,0.00,weatherlink.com 1.10,2013-07-31 03:18:00,
2013-07-30 21:33:00,59.7,39.0,30.03,NNW,328,2.0,6.0,46,0.00,,,0.00,weatherlink.com 1.10,2013-07-31 03:33:00,
2013-07-30 21:48:00,57.8,38.0,30.04,North,351,3.0,3.0,48,0.00,,,0.00,weatherlink.com 1.10,2013-07-31 03:48:00,
2013-07-30 22:03:00,58.1,39.0,30.04,NW,317,2.0,4.0,50,0.00,,,0.00,weatherlink.com 1.10,2013-07-31 04:03:00,
2013-07-30 22:18:00,55.9,39.0,30.05,WNW,294,3.0,6.0,54,0.00,,,0.00,weatherlink.com 1.10,2013-07-31 04:18:00,
2013-07-30 22:33:00,53.5,39.0,30.05,NNW,333,0.0,6.0,59,0.00,,,0.00,weatherlink.com 1.10,2013-07-31 04:33:00,
2013-07-30 22:48:00,54.7,39.0,30.05,WNW,288,1.0,3.0,56,0.00,,,0.00,weatherlink.com 1.10,2013-07-31 04:48:00,
2013-07-30 23:03:00,53.7,39.0,30.06,NNW,340,0.0,0.0,58,0.00,,,0.00,weatherlink.com 1.10,2013-07-31 05:03:00,
2013-07-30 23:18:00,53.9,39.0,30.06,North,352,5.0,6.0,58,0.00,,,0.00,weatherlink.com 1.10,2013-07-31 05:18:00,
2013-07-30 23:33:00,52.3,39.0,30.06,NW,321,3.0,4.0,62,0.00,,,0.00,weatherlink.com 1.10,2013-07-31 05:33:00,
2013-07-30 23:48:00,52.2,40.0,30.06,NNW,348,2.0,6.0,63,0.00,,,0.00,weatherlink.com 1.10,2013-07-31 05:48:00,